BTK6281 WAMM-WIII

Flight info

Callsign BTK6281
Flight time 2h 50m
Altitude 36000
Route GOTSA W15 EGUKO
Aircraft B738/M-SDE2E3FGHIRWY/LB1

Departure

Time 2026-04-26 09:54
Airport Sam Ratulangi International Airport (WAMM)

Arrival

Time 2026-04-26 12:45
Airport Soekarno-Hatta International Airport (WIII)
Time Latitude Longitude Altitude Speed Heading
2026-04-26 09:41 1.54352 124.92342 303 ft 0 kts 262°
2026-04-26 09:46 1.54353 124.92350 303 ft 0 kts 262°
2026-04-26 09:46 1.54355 124.92360 303 ft 0 kts 261°
2026-04-26 09:46 1.54356 124.92370 303 ft 0 kts 262°
2026-04-26 09:46 1.54360 124.92396 304 ft 0 kts 261°
2026-04-26 09:47 1.54368 124.92419 304 ft 0 kts 230°
2026-04-26 09:47 1.54381 124.92429 304 ft 0 kts 207°
2026-04-26 09:47 1.54388 124.92432 304 ft 0 kts 207°
2026-04-26 09:48 1.54387 124.92431 304 ft 0 kts 207°
2026-04-26 09:48 1.54381 124.92429 304 ft 0 kts 205°
2026-04-26 09:49 1.54370 124.92425 304 ft 2 kts 192°
2026-04-26 09:49 1.54346 124.92423 305 ft 3 kts 182°
2026-04-26 09:49 1.54314 124.92421 305 ft 6 kts 182°
2026-04-26 09:49 1.54245 124.92419 305 ft 12 kts 181°
2026-04-26 09:50 1.54134 124.92415 304 ft 18 kts 181°
2026-04-26 09:50 1.54017 124.92414 303 ft 11 kts 169°
2026-04-26 09:50 1.53945 124.92435 303 ft 10 kts 173°
2026-04-26 09:50 1.53867 124.92437 302 ft 12 kts 179°
2026-04-26 09:51 1.53776 124.92438 301 ft 12 kts 167°
2026-04-26 09:51 1.53746 124.92476 302 ft 2 kts 94°
2026-04-26 09:51 1.53745 124.92485 302 ft 0 kts 92°
2026-04-26 09:52 1.53745 124.92486 302 ft 0 kts 92°
2026-04-26 09:52 1.53745 124.92493 302 ft 1 kts 92°
2026-04-26 09:53 1.53744 124.92514 303 ft 4 kts 92°
2026-04-26 09:53 1.53747 124.92562 305 ft 10 kts 73°
2026-04-26 09:53 1.53814 124.92599 306 ft 10 kts
2026-04-26 09:53 1.53949 124.92603 306 ft 45 kts
2026-04-26 09:54 1.54555 124.92622 306 ft 125 kts
2026-04-26 09:54 1.55653 124.92652 439 ft 176 kts
2026-04-26 09:54 1.56825 124.92656 1424 ft 167 kts
2026-04-26 09:54 1.57992 124.92584 2307 ft 169 kts 355°
2026-04-26 09:55 1.59156 124.92381 2986 ft 178 kts 348°
2026-04-26 09:55 1.60385 124.91945 3550 ft 198 kts 338°
2026-04-26 09:55 1.61696 124.91433 4187 ft 211 kts 344°
2026-04-26 09:55 1.63167 124.91042 4815 ft 226 kts 349°
2026-04-26 09:56 1.64788 124.90697 5411 ft 244 kts 350°
2026-04-26 09:56 1.66483 124.90311 6135 ft 257 kts 346°
2026-04-26 09:56 1.68107 124.89520 6933 ft 268 kts 324°
2026-04-26 09:56 1.69414 124.88180 7779 ft 275 kts 311°
2026-04-26 09:57 1.70614 124.86676 8697 ft 278 kts 310°
2026-04-26 09:57 1.71823 124.85173 9596 ft 281 kts 311°
2026-04-26 09:57 1.73096 124.83662 10457 ft 286 kts 312°
2026-04-26 09:57 1.74386 124.82175 11311 ft 290 kts 313°
2026-04-26 09:58 1.75747 124.80626 12111 ft 299 kts 314°
2026-04-26 09:58 1.77135 124.79011 12775 ft 314 kts 308°
2026-04-26 09:58 1.78108 124.77015 13340 ft 334 kts 283°
2026-04-26 09:58 1.78111 124.74632 13893 ft 350 kts 256°
2026-04-26 09:59 1.77256 124.72331 14488 ft 363 kts 244°
2026-04-26 09:59 1.76477 124.70801 14838 ft 374 kts 241°
2026-04-26 09:59 1.74761 124.67694 15604 ft 392 kts 240°
2026-04-26 09:59 1.73442 124.65271 16400 ft 398 kts 241°
2026-04-26 10:00 1.72158 124.62811 17114 ft 405 kts 242°
2026-04-26 10:00 1.70888 124.60292 17943 ft 408 kts 243°
2026-04-26 10:00 1.69622 124.57727 18646 ft 414 kts 243°
2026-04-26 10:00 1.68358 124.55137 19348 ft 419 kts 243°
2026-04-26 10:01 1.67074 124.52501 20009 ft 425 kts 243°
2026-04-26 10:01 1.65767 124.49815 20694 ft 430 kts 244°
2026-04-26 10:01 1.64451 124.47113 21382 ft 434 kts 244°
2026-04-26 10:01 1.63129 124.44402 21982 ft 440 kts 244°
2026-04-26 10:02 1.61786 124.41646 22631 ft 444 kts 244°
2026-04-26 10:02 1.60420 124.38845 23329 ft 447 kts 244°
2026-04-26 10:02 1.59059 124.36054 23930 ft 451 kts 243°
2026-04-26 10:02 1.57673 124.33215 24478 ft 457 kts 243°
2026-04-26 10:03 1.56284 124.30367 25062 ft 461 kts 243°
2026-04-26 10:03 1.54863 124.27456 25570 ft 467 kts 243°
2026-04-26 10:03 1.53437 124.24535 26148 ft 470 kts 243°
2026-04-26 10:03 1.51998 124.21590 26662 ft 475 kts 243°
2026-04-26 10:04 1.50535 124.18593 27145 ft 480 kts 242°
2026-04-26 10:04 1.49072 124.15597 27741 ft 482 kts 242°
2026-04-26 10:04 1.47590 124.12561 28177 ft 488 kts 242°
2026-04-26 10:04 1.46086 124.09480 28721 ft 491 kts 242°
2026-04-26 10:05 1.44592 124.06420 29258 ft 494 kts 242°
2026-04-26 10:05 1.43080 124.03326 30064 ft 490 kts 242°
2026-04-26 10:05 1.41549 124.00294 30955 ft 483 kts 240°
2026-04-26 10:05 1.39866 123.97397 31757 ft 477 kts 236°
2026-04-26 10:06 1.38030 123.94607 32467 ft 474 kts 233°
2026-04-26 10:06 1.36124 123.91909 33157 ft 472 kts 231°
2026-04-26 10:06 1.34187 123.89256 33740 ft 472 kts 231°
2026-04-26 10:06 1.32222 123.86599 33825 ft 476 kts 231°
2026-04-26 10:07 1.28299 123.81287 33824 ft 468 kts 231°
2026-04-26 10:07 1.24454 123.76023 33823 ft 469 kts 231°
2026-04-26 10:08 1.20637 123.70756 33822 ft 469 kts 232°
2026-04-26 10:08 1.16806 123.65446 33822 ft 470 kts 232°
2026-04-26 10:09 1.13618 123.61018 33822 ft 470 kts 232°
2026-04-26 10:09 1.09173 123.54842 33822 ft 471 kts 232°
2026-04-26 10:10 1.05332 123.49506 33823 ft 469 kts 232°
2026-04-26 10:10 1.01538 123.44234 33821 ft 469 kts 232°
2026-04-26 10:11 0.97693 123.38892 33827 ft 470 kts 232°
2026-04-26 10:11 0.94284 123.33304 33844 ft 474 kts 243°
2026-04-26 10:12 0.92137 123.27073 33864 ft 477 kts 253°
2026-04-26 10:12 0.90554 123.20577 33875 ft 478 kts 256°
2026-04-26 10:13 0.89105 123.14096 33875 ft 477 kts 256°
2026-04-26 10:13 0.87640 123.07613 33873 ft 477 kts 255°
2026-04-26 10:14 0.86140 123.01130 33870 ft 477 kts 255°
2026-04-26 10:14 0.84620 122.94667 33864 ft 478 kts 255°
2026-04-26 10:15 0.83095 122.88236 33862 ft 476 kts 255°
2026-04-26 10:15 0.81567 122.81806 33861 ft 475 kts 255°
2026-04-26 10:16 0.80027 122.75334 33846 ft 477 kts 255°
2026-04-26 10:16 0.78498 122.68909 33859 ft 476 kts 255°
2026-04-26 10:17 0.76962 122.62449 33872 ft 477 kts 255°
2026-04-26 10:17 0.75432 122.56014 33888 ft 476 kts 255°
2026-04-26 10:18 0.73908 122.49594 33898 ft 476 kts 255°
2026-04-26 10:18 0.72375 122.43140 33894 ft 476 kts 255°
2026-04-26 10:19 0.70848 122.36715 33900 ft 476 kts 255°
2026-04-26 10:19 0.69305 122.30250 33899 ft 476 kts 255°
2026-04-26 10:20 0.68019 122.24857 33903 ft 476 kts 255°
2026-04-26 10:20 0.66235 122.17369 33916 ft 475 kts 255°
2026-04-26 10:21 0.64709 122.10962 33924 ft 476 kts 255°
2026-04-26 10:21 0.63175 122.04524 33921 ft 477 kts 255°
2026-04-26 10:22 0.61649 121.98108 33921 ft 475 kts 255°
2026-04-26 10:22 0.60118 121.91675 33912 ft 474 kts 255°
2026-04-26 10:23 0.58590 121.85255 33901 ft 475 kts 255°
2026-04-26 10:23 0.57136 121.79153 33892 ft 476 kts 255°
2026-04-26 10:24 0.55584 121.72633 33880 ft 474 kts 255°
2026-04-26 10:24 0.54052 121.66201 33869 ft 475 kts 255°
2026-04-26 10:25 0.52518 121.59759 33867 ft 475 kts 255°
2026-04-26 10:25 0.50991 121.53346 33853 ft 474 kts 255°
2026-04-26 10:26 0.49461 121.46920 33844 ft 475 kts 255°
2026-04-26 10:26 0.47930 121.40492 33847 ft 474 kts 255°
2026-04-26 10:27 0.46407 121.34098 33858 ft 475 kts 255°
2026-04-26 10:27 0.44880 121.27690 33858 ft 475 kts 255°
2026-04-26 10:28 0.43333 121.21223 33866 ft 475 kts 255°
2026-04-26 10:28 0.41805 121.14806 33865 ft 475 kts 255°
2026-04-26 10:29 0.40276 121.08378 33865 ft 475 kts 255°
2026-04-26 10:29 0.38747 121.01952 33873 ft 475 kts 255°
2026-04-26 10:30 0.37225 120.95557 33861 ft 475 kts 255°
2026-04-26 10:30 0.35699 120.89150 33862 ft 474 kts 255°
2026-04-26 10:31 0.34175 120.82755 33848 ft 474 kts 255°
2026-04-26 10:31 0.32649 120.76347 33835 ft 474 kts 255°
2026-04-26 10:32 0.31128 120.69968 33838 ft 474 kts 255°
2026-04-26 10:32 0.29605 120.63577 33830 ft 474 kts 255°
2026-04-26 10:33 0.28078 120.57166 33837 ft 474 kts 255°
2026-04-26 10:33 0.26554 120.50773 33833 ft 474 kts 255°
2026-04-26 10:34 0.25032 120.44383 33837 ft 474 kts 255°
2026-04-26 10:34 0.23515 120.38017 33838 ft 473 kts 255°
2026-04-26 10:35 0.21988 120.31611 33838 ft 474 kts 255°
2026-04-26 10:35 0.20466 120.25223 33838 ft 474 kts 255°
2026-04-26 10:36 0.18936 120.18806 33843 ft 473 kts 255°
2026-04-26 10:36 0.17419 120.12440 33853 ft 473 kts 255°
2026-04-26 10:37 0.15898 120.06062 33861 ft 473 kts 255°
2026-04-26 10:37 0.14370 119.99648 33868 ft 473 kts 255°
2026-04-26 10:38 0.12855 119.93291 33861 ft 473 kts 255°
2026-04-26 10:38 0.11331 119.86897 33853 ft 473 kts 255°
2026-04-26 10:39 0.09811 119.80518 33845 ft 472 kts 255°
2026-04-26 10:39 0.08285 119.74113 33837 ft 472 kts 255°
2026-04-26 10:40 0.06765 119.67737 33846 ft 472 kts 255°
2026-04-26 10:40 0.05248 119.61372 33847 ft 472 kts 255°
2026-04-26 10:41 0.03721 119.55009 33838 ft 472 kts 254°
2026-04-26 10:41 0.01753 119.48759 33838 ft 470 kts 246°
2026-04-26 10:42 -0.00501 119.43842 33833 ft 468 kts 242°
2026-04-26 10:42 -0.03959 119.37093 33833 ft 469 kts 241°
2026-04-26 10:43 -0.06960 119.31274 33831 ft 468 kts 241°
2026-04-26 10:43 -0.09895 119.25480 33831 ft 469 kts 242°
2026-04-26 10:44 -0.12817 119.19640 33828 ft 468 kts 242°
2026-04-26 10:44 -0.15720 119.13803 33829 ft 468 kts 242°
2026-04-26 10:45 -0.18608 119.07980 33822 ft 469 kts 242°
2026-04-26 10:45 -0.21512 119.02123 33822 ft 470 kts 242°
2026-04-26 10:46 -0.24396 118.96304 33821 ft 470 kts 242°
2026-04-26 10:46 -0.27289 118.90466 33820 ft 469 kts 242°
2026-04-26 10:47 -0.30190 118.84613 33821 ft 470 kts 242°
2026-04-26 10:47 -0.33083 118.78777 33821 ft 469 kts 242°
2026-04-26 10:48 -0.35981 118.72929 33821 ft 469 kts 242°
2026-04-26 10:48 -0.38875 118.67094 33822 ft 470 kts 242°
2026-04-26 10:49 -0.41780 118.61233 33822 ft 470 kts 242°
2026-04-26 10:49 -0.44680 118.55383 33822 ft 470 kts 242°
2026-04-26 10:50 -0.47112 118.50477 33822 ft 471 kts 242°
2026-04-26 10:50 -0.50495 118.43652 33822 ft 470 kts 242°
2026-04-26 10:51 -0.54855 118.34855 33822 ft 471 kts 242°
2026-04-26 10:52 -0.57763 118.28987 33822 ft 471 kts 242°
2026-04-26 10:52 -0.60669 118.23125 33822 ft 470 kts 242°
2026-04-26 10:53 -0.63576 118.17259 33822 ft 470 kts 242°
2026-04-26 10:53 -0.66477 118.11404 33822 ft 469 kts 242°
2026-04-26 10:54 -0.70835 118.02611 33822 ft 470 kts 242°
2026-04-26 10:54 -0.73744 117.96741 33822 ft 471 kts 242°
2026-04-26 10:55 -0.76623 117.90932 33822 ft 469 kts 242°
2026-04-26 10:55 -0.79035 117.86063 33822 ft 469 kts 242°
2026-04-26 10:56 -0.82407 117.79257 33821 ft 470 kts 242°
2026-04-26 10:56 -0.85304 117.73412 33819 ft 469 kts 242°
2026-04-26 10:57 -0.88224 117.67518 33815 ft 471 kts 242°
2026-04-26 10:57 -0.91120 117.61671 33808 ft 470 kts 242°
2026-04-26 10:58 -0.94029 117.55798 33807 ft 469 kts 242°
2026-04-26 10:58 -0.96913 117.49978 33804 ft 470 kts 242°
2026-04-26 10:59 -0.99806 117.44136 33808 ft 469 kts 242°
2026-04-26 10:59 -1.02706 117.38281 33813 ft 471 kts 242°
2026-04-26 11:00 -1.05612 117.32414 33809 ft 470 kts 242°
2026-04-26 11:00 -1.08499 117.26587 33809 ft 470 kts 242°
2026-04-26 11:01 -1.11405 117.20718 33809 ft 470 kts 242°
2026-04-26 11:01 -1.14295 117.14877 33809 ft 470 kts 242°
2026-04-26 11:02 -1.17192 117.09028 33805 ft 470 kts 242°
2026-04-26 11:02 -1.20075 117.03206 33809 ft 470 kts 242°
2026-04-26 11:03 -1.22982 116.97335 33812 ft 471 kts 242°
2026-04-26 11:03 -1.25653 116.91395 33817 ft 471 kts 248°
2026-04-26 11:04 -1.27770 116.85183 33816 ft 471 kts 251°
2026-04-26 11:04 -1.29722 116.78947 33816 ft 472 kts 251°
2026-04-26 11:05 -1.31700 116.72659 33818 ft 471 kts 251°
2026-04-26 11:05 -1.33704 116.66406 33821 ft 471 kts 250°
2026-04-26 11:06 -1.35391 116.61207 33822 ft 471 kts 250°
2026-04-26 11:06 -1.37766 116.53940 33824 ft 471 kts 250°
2026-04-26 11:07 -1.39809 116.47709 33825 ft 469 kts 250°
2026-04-26 11:07 -1.41833 116.41539 33827 ft 470 kts 250°
2026-04-26 11:08 -1.43863 116.35350 33828 ft 470 kts 250°
2026-04-26 11:08 -1.45906 116.29121 33829 ft 470 kts 250°
2026-04-26 11:09 -1.47940 116.22920 33830 ft 469 kts 250°
2026-04-26 11:09 -1.49982 116.16693 33839 ft 469 kts 250°
2026-04-26 11:10 -1.52018 116.10484 33852 ft 469 kts 250°
2026-04-26 11:10 -1.54046 116.04301 33865 ft 468 kts 250°
2026-04-26 11:11 -1.56080 115.98100 33872 ft 468 kts 250°
2026-04-26 11:11 -1.58104 115.91922 33862 ft 469 kts 250°
2026-04-26 11:12 -1.60135 115.85725 33857 ft 468 kts 250°
2026-04-26 11:12 -1.62151 115.79571 33855 ft 469 kts 250°
2026-04-26 11:13 -1.64180 115.73378 33860 ft 469 kts 251°
2026-04-26 11:13 -1.66211 115.67181 33863 ft 469 kts 251°
2026-04-26 11:14 -1.68243 115.60979 33856 ft 468 kts 251°
2026-04-26 11:14 -1.69930 115.55827 33851 ft 469 kts 250°
2026-04-26 11:15 -1.72285 115.48639 33841 ft 468 kts 250°
2026-04-26 11:15 -1.74310 115.42457 33837 ft 468 kts 251°
2026-04-26 11:16 -1.76330 115.36290 33831 ft 468 kts 251°
2026-04-26 11:16 -1.78377 115.30102 33831 ft 468 kts 250°
2026-04-26 11:17 -1.80473 115.23982 33833 ft 468 kts 250°
2026-04-26 11:17 -1.82586 115.17867 33832 ft 468 kts 250°
2026-04-26 11:18 -1.84703 115.11728 33821 ft 468 kts 250°
2026-04-26 11:18 -1.86827 115.05551 33810 ft 469 kts 250°
2026-04-26 11:19 -1.88938 114.99395 33809 ft 468 kts 250°
2026-04-26 11:19 -1.91027 114.93299 33810 ft 467 kts 250°
2026-04-26 11:20 -1.92792 114.88149 33810 ft 468 kts 250°
2026-04-26 11:20 -1.95244 114.80989 33812 ft 469 kts 250°
2026-04-26 11:21 -1.97347 114.74849 33814 ft 468 kts 250°
2026-04-26 11:21 -1.99457 114.68686 33818 ft 469 kts 250°
2026-04-26 11:22 -2.01570 114.62515 33818 ft 467 kts 250°
2026-04-26 11:22 -2.03666 114.56389 33818 ft 467 kts 250°
2026-04-26 11:23 -2.05773 114.50235 33820 ft 469 kts 250°
2026-04-26 11:23 -2.07885 114.44064 33817 ft 469 kts 250°
2026-04-26 11:24 -2.09995 114.37897 33816 ft 469 kts 250°
2026-04-26 11:24 -2.12097 114.31754 33815 ft 470 kts 250°
2026-04-26 11:25 -2.14208 114.25581 33814 ft 468 kts 250°
2026-04-26 11:25 -2.16336 114.19430 33813 ft 469 kts 250°
2026-04-26 11:26 -2.18482 114.13280 33816 ft 470 kts 250°
2026-04-26 11:26 -2.20643 114.07092 33814 ft 470 kts 250°
2026-04-26 11:27 -2.22790 114.00939 33815 ft 470 kts 250°
2026-04-26 11:27 -2.24982 113.94743 33817 ft 470 kts 248°
2026-04-26 11:28 -2.27623 113.88770 33826 ft 469 kts 243°
2026-04-26 11:28 -2.30525 113.82916 33831 ft 469 kts 242°
2026-04-26 11:29 -2.33442 113.77090 33833 ft 469 kts 243°
2026-04-26 11:29 -2.36314 113.71272 33832 ft 470 kts 243°
2026-04-26 11:30 -2.38707 113.66368 33829 ft 468 kts 243°
2026-04-26 11:30 -2.42028 113.59518 33826 ft 470 kts 243°
2026-04-26 11:31 -2.44858 113.53662 33822 ft 468 kts 243°
2026-04-26 11:31 -2.47684 113.47811 33822 ft 469 kts 243°
2026-04-26 11:32 -2.50532 113.41911 33819 ft 470 kts 243°
2026-04-26 11:32 -2.53379 113.36012 33815 ft 470 kts 243°
2026-04-26 11:33 -2.56208 113.30150 33820 ft 469 kts 243°
2026-04-26 11:33 -2.59046 113.24271 33817 ft 469 kts 243°
2026-04-26 11:34 -2.61887 113.18382 33813 ft 470 kts 243°
2026-04-26 11:34 -2.64727 113.12496 33819 ft 470 kts 243°
2026-04-26 11:35 -2.67571 113.06602 33828 ft 470 kts 243°
2026-04-26 11:35 -2.69925 113.01721 33825 ft 468 kts 243°
2026-04-26 11:36 -2.73222 112.94886 33824 ft 469 kts 243°
2026-04-26 11:36 -2.76064 112.88993 33822 ft 469 kts 243°
2026-04-26 11:37 -2.78907 112.83096 33829 ft 470 kts 243°
2026-04-26 11:37 -2.81738 112.77222 33830 ft 468 kts 243°
2026-04-26 11:38 -2.84569 112.71348 33837 ft 468 kts 243°
2026-04-26 11:38 -2.87393 112.65488 33837 ft 468 kts 243°
2026-04-26 11:39 -2.90233 112.59594 33838 ft 469 kts 243°
2026-04-26 11:39 -2.93069 112.53708 33840 ft 468 kts 243°
2026-04-26 11:40 -2.95879 112.47874 33840 ft 469 kts 243°
2026-04-26 11:40 -2.98715 112.41983 33839 ft 469 kts 243°
2026-04-26 11:42 -3.10011 112.18522 33842 ft 467 kts 243°
2026-04-26 11:43 -3.12851 112.12622 33844 ft 469 kts 243°
2026-04-26 11:43 -3.15659 112.06784 33847 ft 468 kts 243°
2026-04-26 11:44 -3.18491 112.00896 33846 ft 468 kts 243°
2026-04-26 11:44 -3.21303 111.95050 33849 ft 467 kts 243°
2026-04-26 11:45 -3.24122 111.89187 33858 ft 468 kts 243°
2026-04-26 11:45 -3.26945 111.83318 33861 ft 468 kts 243°
2026-04-26 11:46 -3.29767 111.77447 33858 ft 468 kts 243°
2026-04-26 11:46 -3.32580 111.71596 33851 ft 468 kts 243°
2026-04-26 11:47 -3.35384 111.65760 33851 ft 468 kts 243°
2026-04-26 11:47 -3.38218 111.59861 33852 ft 468 kts 243°
2026-04-26 11:48 -3.41025 111.54018 33852 ft 468 kts 243°
2026-04-26 11:48 -3.43857 111.48121 33854 ft 469 kts 243°
2026-04-26 11:49 -3.46672 111.42259 33850 ft 469 kts 243°
2026-04-26 11:49 -3.49498 111.36373 33850 ft 469 kts 243°
2026-04-26 11:50 -3.52308 111.30520 33850 ft 469 kts 244°
2026-04-26 11:50 -3.55135 111.24630 33848 ft 468 kts 244°
2026-04-26 11:51 -3.57937 111.18790 33845 ft 469 kts 243°
2026-04-26 11:51 -3.60762 111.12901 33844 ft 469 kts 244°
2026-04-26 11:52 -3.63105 111.08015 33843 ft 468 kts 243°
2026-04-26 11:52 -3.66383 111.01181 33843 ft 469 kts 244°
2026-04-26 11:53 -3.69206 110.95295 33843 ft 468 kts 244°
2026-04-26 11:54 -3.73434 110.86473 33842 ft 469 kts 244°
2026-04-26 11:54 -3.76242 110.80614 33842 ft 469 kts 244°
2026-04-26 11:55 -3.79070 110.74712 33843 ft 469 kts 244°
2026-04-26 11:55 -3.81880 110.68845 33843 ft 468 kts 244°
2026-04-26 11:56 -3.84700 110.62959 33844 ft 468 kts 244°
2026-04-26 11:56 -3.87507 110.57096 33843 ft 468 kts 244°
2026-04-26 11:57 -3.90298 110.51268 33852 ft 467 kts 244°
2026-04-26 11:57 -3.93115 110.45382 33863 ft 468 kts 244°
2026-04-26 11:58 -3.95917 110.39526 33863 ft 467 kts 244°
2026-04-26 11:58 -3.98720 110.33665 33863 ft 467 kts 244°
2026-04-26 11:59 -4.01516 110.27818 33864 ft 467 kts 244°
2026-04-26 11:59 -4.04313 110.21970 33864 ft 465 kts 244°
2026-04-26 12:00 -4.07117 110.16103 33864 ft 466 kts 244°
2026-04-26 12:00 -4.09897 110.10287 33864 ft 466 kts 244°
2026-04-26 12:01 -4.12704 110.04413 33864 ft 466 kts 244°
2026-04-26 12:01 -4.15484 109.98591 33864 ft 466 kts 244°
2026-04-26 12:02 -4.18278 109.92739 33864 ft 465 kts 244°
2026-04-26 12:02 -4.21072 109.86887 33863 ft 464 kts 244°
2026-04-26 12:03 -4.23834 109.81102 33863 ft 464 kts 244°
2026-04-26 12:03 -4.26621 109.75263 33863 ft 465 kts 244°
2026-04-26 12:04 -4.29409 109.69419 33864 ft 464 kts 244°
2026-04-26 12:04 -4.32185 109.63599 33864 ft 463 kts 244°
2026-04-26 12:05 -4.34957 109.57787 33863 ft 463 kts 244°
2026-04-26 12:05 -4.37739 109.51955 33864 ft 463 kts 244°
2026-04-26 12:06 -4.40501 109.46159 33864 ft 462 kts 244°
2026-04-26 12:06 -4.43261 109.40368 33865 ft 462 kts 244°
2026-04-26 12:07 -4.46045 109.34525 33867 ft 463 kts 244°
2026-04-26 12:07 -4.48794 109.28754 33865 ft 462 kts 244°
2026-04-26 12:08 -4.51573 109.22920 33864 ft 462 kts 244°
2026-04-26 12:08 -4.54340 109.17110 33865 ft 463 kts 244°
2026-04-26 12:09 -4.57109 109.11292 33863 ft 463 kts 244°
2026-04-26 12:09 -4.59890 109.05449 33865 ft 461 kts 244°
2026-04-26 12:10 -4.62668 108.99610 33864 ft 462 kts 244°
2026-04-26 12:10 -4.65409 108.93848 33864 ft 461 kts 244°
2026-04-26 12:11 -4.68164 108.88055 33863 ft 462 kts 244°
2026-04-26 12:11 -4.70928 108.82867 33862 ft 462 kts 236°
2026-04-26 12:11 -4.73223 108.80125 33862 ft 460 kts 221°
2026-04-26 12:12 -4.75739 108.78148 33864 ft 459 kts 214°
2026-04-26 12:12 -4.81119 108.74644 33860 ft 458 kts 211°
2026-04-26 12:13 -4.86533 108.71304 33853 ft 458 kts 211°
2026-04-26 12:13 -4.91960 108.67901 33844 ft 456 kts 211°
2026-04-26 12:14 -4.97310 108.64473 33851 ft 457 kts 212°
2026-04-26 12:14 -5.02657 108.61005 33855 ft 456 kts 212°
2026-04-26 12:15 -5.07993 108.57527 33854 ft 458 kts 212°
2026-04-26 12:15 -5.13346 108.54031 33855 ft 458 kts 212°
2026-04-26 12:16 -5.18679 108.50544 33856 ft 458 kts 212°
2026-04-26 12:16 -5.24029 108.47046 33863 ft 457 kts 212°
2026-04-26 12:17 -5.29393 108.43537 33863 ft 457 kts 212°
2026-04-26 12:17 -5.34726 108.40049 33863 ft 456 kts 212°
2026-04-26 12:18 -5.40053 108.36563 33862 ft 458 kts 212°
2026-04-26 12:18 -5.45398 108.33065 33862 ft 458 kts 212°
2026-04-26 12:19 -5.50763 108.29553 33863 ft 458 kts 213°
2026-04-26 12:19 -5.56134 108.26037 33869 ft 458 kts 213°
2026-04-26 12:20 -5.61448 108.22558 33967 ft 455 kts 213°
2026-04-26 12:20 -5.66797 108.19033 33866 ft 458 kts 213°
2026-04-26 12:21 -5.72031 108.15438 33863 ft 459 kts 214°
2026-04-26 12:21 -5.77297 108.11760 33864 ft 460 kts 214°
2026-04-26 12:22 -5.82559 108.08083 33442 ft 455 kts 214°
2026-04-26 12:22 -5.85159 108.06271 32995 ft 447 kts 214°
2026-04-26 12:22 -5.87705 108.04497 32599 ft 439 kts 215°
2026-04-26 12:22 -5.90111 108.02640 32134 ft 443 kts 222°
2026-04-26 12:23 -5.92261 108.00352 31592 ft 449 kts 232°
2026-04-26 12:23 -5.93941 107.97749 31041 ft 446 kts 243°
2026-04-26 12:23 -5.95172 107.94917 30864 ft 437 kts 251°
2026-04-26 12:24 -5.96327 107.88917 30868 ft 445 kts 268°
2026-04-26 12:24 -5.96439 107.82716 30712 ft 438 kts 272°
2026-04-26 12:25 -5.96342 107.76646 29380 ft 438 kts 272°
2026-04-26 12:25 -5.96293 107.73593 28731 ft 437 kts 272°
2026-04-26 12:25 -5.96255 107.70588 28184 ft 434 kts 272°
2026-04-26 12:25 -5.96226 107.67561 27665 ft 430 kts 272°
2026-04-26 12:26 -5.96205 107.64582 27149 ft 426 kts 271°
2026-04-26 12:26 -5.96192 107.61633 26650 ft 422 kts 271°
2026-04-26 12:26 -5.96184 107.58702 26144 ft 418 kts 271°
2026-04-26 12:26 -5.96179 107.55798 25604 ft 415 kts 271°
2026-04-26 12:27 -5.96176 107.52915 25107 ft 411 kts 271°
2026-04-26 12:27 -5.96175 107.50062 24597 ft 407 kts 270°
2026-04-26 12:27 -5.96174 107.47221 24091 ft 404 kts 270°
2026-04-26 12:27 -5.96174 107.44421 23583 ft 400 kts 270°
2026-04-26 12:28 -5.96173 107.41642 23080 ft 397 kts 270°
2026-04-26 12:28 -5.96172 107.38881 22584 ft 394 kts 270°
2026-04-26 12:28 -5.96171 107.36163 22085 ft 390 kts 270°
2026-04-26 12:28 -5.96170 107.33423 21569 ft 388 kts 270°
2026-04-26 12:29 -5.96169 107.30732 21085 ft 384 kts 270°
2026-04-26 12:29 -5.96166 107.28094 20571 ft 382 kts 270°
2026-04-26 12:29 -5.96158 107.22788 19554 ft 376 kts 270°
2026-04-26 12:30 -5.96153 107.20178 19087 ft 372 kts 270°
2026-04-26 12:30 -5.96149 107.17582 18564 ft 370 kts 270°
2026-04-26 12:30 -5.96144 107.15032 18065 ft 367 kts 270°
2026-04-26 12:31 -5.96134 107.09955 17079 ft 361 kts 270°
2026-04-26 12:31 -5.96129 107.07454 16584 ft 358 kts 270°
2026-04-26 12:31 -5.96125 107.04990 16130 ft 354 kts 270°
2026-04-26 12:31 -5.96120 107.02537 15625 ft 354 kts 270°
2026-04-26 12:32 -5.96114 106.99976 15473 ft 380 kts 270°
2026-04-26 12:32 -5.96108 106.97188 15494 ft 408 kts 270°
2026-04-26 12:32 -5.96092 106.91175 15543 ft 452 kts 270°
2026-04-26 12:33 -5.96083 106.87989 15528 ft 451 kts 270°
2026-04-26 12:33 -5.96075 106.84891 15199 ft 433 kts 270°
2026-04-26 12:33 -5.96104 106.81953 14836 ft 417 kts 268°
2026-04-26 12:33 -5.96347 106.79116 14508 ft 401 kts 261°
2026-04-26 12:34 -5.96976 106.76440 14206 ft 385 kts 252°
2026-04-26 12:34 -5.97852 106.73940 13942 ft 370 kts 248°
2026-04-26 12:34 -5.98804 106.71613 13761 ft 354 kts 246°
2026-04-26 12:34 -5.99756 106.69408 13500 ft 339 kts 245°
2026-04-26 12:35 -6.00682 106.67268 13361 ft 324 kts 246°
2026-04-26 12:35 -6.01546 106.65234 12970 ft 311 kts 246°
2026-04-26 12:35 -6.02371 106.63245 12360 ft 305 kts 247°
2026-04-26 12:35 -6.03169 106.61293 11695 ft 302 kts 247°
2026-04-26 12:36 -6.03946 106.59376 11193 ft 293 kts 248°
2026-04-26 12:36 -6.04702 106.57504 10825 ft 281 kts 248°
2026-04-26 12:36 -6.05421 106.55719 10401 ft 273 kts 248°
2026-04-26 12:36 -6.06132 106.53955 9861 ft 272 kts 248°
2026-04-26 12:37 -6.06845 106.52188 9322 ft 270 kts 248°
2026-04-26 12:37 -6.07542 106.50460 8846 ft 266 kts 248°
2026-04-26 12:37 -6.08229 106.48759 8329 ft 264 kts 248°
2026-04-26 12:37 -6.08918 106.47055 7861 ft 260 kts 248°
2026-04-26 12:38 -6.09590 106.45391 7499 ft 253 kts 248°
2026-04-26 12:38 -6.10348 106.43827 7082 ft 249 kts 236°
2026-04-26 12:38 -6.11574 106.42667 6799 ft 236 kts 203°
2026-04-26 12:38 -6.13121 106.42348 6551 ft 220 kts 174°
2026-04-26 12:39 -6.14580 106.42593 6364 ft 204 kts 166°
2026-04-26 12:39 -6.15973 106.42982 5729 ft 214 kts 153°
2026-04-26 12:39 -6.17098 106.43946 4964 ft 220 kts 118°
2026-04-26 12:39 -6.17488 106.45366 4573 ft 205 kts 91°
2026-04-26 12:40 -6.17468 106.46722 4536 ft 184 kts 87°
2026-04-26 12:40 -6.17442 106.48005 4534 ft 180 kts 88°
2026-04-26 12:40 -6.17397 106.49279 4534 ft 181 kts 82°
2026-04-26 12:40 -6.17059 106.50442 4542 ft 169 kts 65°
2026-04-26 12:41 -6.16581 106.51482 4357 ft 162 kts 66°
2026-04-26 12:41 -6.16131 106.52540 3990 ft 165 kts 68°
2026-04-26 12:41 -6.15706 106.53599 3604 ft 161 kts 68°
2026-04-26 12:41 -6.15289 106.54646 3097 ft 163 kts 68°
2026-04-26 12:42 -6.14871 106.55695 2628 ft 162 kts 68°
2026-04-26 12:42 -6.14457 106.56735 2257 ft 155 kts 68°
2026-04-26 12:42 -6.14064 106.57720 1928 ft 150 kts 68°
2026-04-26 12:42 -6.13671 106.58707 1593 ft 149 kts 68°
2026-04-26 12:43 -6.13303 106.59626 1333 ft 140 kts 67°
2026-04-26 12:43 -6.12943 106.60531 1117 ft 139 kts 68°
2026-04-26 12:43 -6.12590 106.61440 867 ft 139 kts 67°
2026-04-26 12:43 -6.12232 106.62341 648 ft 140 kts 67°
2026-04-26 12:44 -6.11870 106.63259 382 ft 139 kts 67°
2026-04-26 12:44 -6.11507 106.64164 183 ft 140 kts 66°
2026-04-26 12:44 -6.11157 106.65045 61 ft 129 kts 67°
2026-04-26 12:44 -6.10846 106.65805 47 ft 105 kts 68°
2026-04-26 12:45 -6.10646 106.66318 47 ft 42 kts 70°
2026-04-26 12:45 -6.10556 106.66543 47 ft 32 kts 68°
2026-04-26 12:45 -6.10479 106.66732 47 ft 26 kts 68°
2026-04-26 12:45 -6.10429 106.66863 47 ft 14 kts 69°
2026-04-26 12:46 -6.10412 106.66917 47 ft 4 kts 81°
2026-04-26 12:46 -6.10413 106.66945 47 ft 11 kts 101°
2026-04-26 12:46 -6.10464 106.66994 47 ft 12 kts 158°
2026-04-26 12:46 -6.10574 106.67038 47 ft 16 kts 159°
2026-04-26 12:47 -6.10666 106.67003 47 ft 21 kts 248°
2026-04-26 12:47 -6.10728 106.66848 47 ft 23 kts 249°
2026-04-26 12:47 -6.10784 106.66704 47 ft 20 kts 249°
2026-04-26 12:47 -6.10834 106.66578 47 ft 18 kts 248°
2026-04-26 12:48 -6.10879 106.66469 47 ft 15 kts 248°
2026-04-26 12:48 -6.10915 106.66376 47 ft 12 kts 249°
2026-04-26 12:48 -6.10945 106.66299 47 ft 11 kts 248°
2026-04-26 12:48 -6.10966 106.66247 47 ft 13 kts 248°
2026-04-26 12:49 -6.11015 106.66123 47 ft 13 kts 248°
2026-04-26 12:49 -6.11050 106.66035 47 ft 13 kts 249°
2026-04-26 12:49 -6.11062 106.66011 47 ft 2 kts 221°
2026-04-26 12:49 -6.11089 106.65997 47 ft 6 kts 190°
2026-04-26 12:50 -6.11140 106.66012 47 ft 9 kts 154°
2026-04-26 12:50 -6.11186 106.66033 47 ft 11 kts 155°
2026-04-26 12:50 -6.11245 106.66097 47 ft 14 kts 113°
2026-04-26 12:50 -6.11262 106.66203 47 ft 16 kts 98°
2026-04-26 12:51 -6.11332 106.66269 47 ft 11 kts 209°
2026-04-26 12:51 -6.11369 106.66209 47 ft 11 kts 247°
2026-04-26 12:51 -6.11401 106.66129 47 ft 13 kts 248°
2026-04-26 12:51 -6.11441 106.66030 47 ft 16 kts 248°
2026-04-26 12:52 -6.11485 106.65913 47 ft 19 kts 250°
2026-04-26 12:52 -6.11539 106.65781 47 ft 21 kts 249°
2026-04-26 12:52 -6.11588 106.65661 47 ft 8 kts 248°
2026-04-26 12:52 -6.11599 106.65635 47 ft 4 kts 248°
2026-04-26 12:53 -6.11615 106.65596 47 ft 7 kts 248°
2026-04-26 12:53 -6.11639 106.65535 47 ft 10 kts 249°
2026-04-26 12:53 -6.11669 106.65456 47 ft 13 kts 249°
2026-04-26 12:53 -6.11707 106.65360 47 ft 16 kts 248°
2026-04-26 12:54 -6.11754 106.65245 47 ft 19 kts 248°
2026-04-26 12:54 -6.11804 106.65115 47 ft 21 kts 249°
2026-04-26 12:54 -6.11854 106.65012 47 ft 13 kts 222°
2026-04-26 12:54 -6.11951 106.65015 47 ft 16 kts 169°
2026-04-26 12:55 -6.12065 106.65007 47 ft 13 kts 189°
2026-04-26 12:55 -6.12135 106.64967 47 ft 10 kts 243°
2026-04-26 12:55 -6.12166 106.64896 47 ft 11 kts 248°
2026-04-26 12:55 -6.12182 106.64863 47 ft 4 kts 240°
2026-04-26 12:56 -6.12205 106.64828 47 ft 5 kts 224°
2026-04-26 12:56 -6.12230 106.64812 47 ft 2 kts 194°
2026-04-26 12:56 -6.12247 106.64818 47 ft 2 kts 152°
2026-04-26 12:56 -6.12258 106.64826 47 ft 1 kts 136°
2026-04-26 12:57 -6.12267 106.64834 47 ft 1 kts 140°
2026-04-26 12:57 -6.12274 106.64839 47 ft 1 kts 140°
2026-04-26 12:57 -6.12280 106.64844 47 ft 1 kts 140°
2026-04-26 12:58 -6.12291 106.64854 47 ft 0 kts 140°
2026-04-26 12:58 -6.12293 106.64855 47 ft 0 kts 140°